| time (UTC) | temp C | wind direction | speed KPH | gust KPH | rain 1hr cm | rain 24hr cm | rain mn cm | humidity % | barometer mb |
| 20260505193035 | 5 | 283 | 8.0 | 22.5 | 0.00 | 0.00 | 0.00 | 53 | 1009.6 |
| 20260505192509 | 5 | 254 | 9.7 | 20.9 | 0.00 | 0.00 | 0.00 | 53 | 1009.6 |
| 20260505192015 | 5 | 272 | 4.8 | 14.5 | 0.00 | 0.00 | 0.00 | 54 | 1009.5 |
| 20260505191529 | 5 | 238 | 6.4 | 14.5 | 0.00 | 0.00 | 0.00 | 52 | 1009.5 |
| 20260505191009 | 5 | 329 | 3.2 | 19.3 | 0.00 | 0.00 | 0.00 | 54 | 1009.4 |
| 20260505190517 | 5 | 270 | 4.8 | 19.3 | 0.00 | 0.00 | 0.00 | 54 | 1009.5 |
| 20260505190029 | 5 | 309 | 4.8 | 16.1 | 0.00 | 0.00 | 0.00 | 53 | 1009.4 |
| 20260505185509 | 5 | 276 | 6.4 | 16.1 | 0.00 | 0.00 | 0.00 | 56 | 1009.4 |
| 20260505185012 | 5 | 263 | 6.4 | 16.1 | 0.00 | 0.00 | 0.00 | 54 | 1009.4 |
| 20260505184531 | 5 | 263 | 4.8 | 14.5 | 0.00 | 0.00 | 0.00 | 56 | 1009.4 |
| 20260505184009 | 5 | 304 | 3.2 | 16.1 | 0.00 | 0.00 | 0.00 | 56 | 1009.5 |
| 20260505183512 | 4 | 311 | 4.8 | 16.1 | 0.00 | 0.00 | 0.00 | 56 | 1009.4 |
| 20260505183043 | 4 | 321 | 8.0 | 17.7 | 0.00 | 0.00 | 0.00 | 55 | 1009.5 |
| 20260505182509 | 4 | 250 | 4.8 | 17.7 | 0.00 | 0.00 | 0.00 | 55 | 1009.5 |
| 20260505182015 | 4 | 253 | 6.4 | 17.7 | 0.00 | 0.00 | 0.00 | 57 | 1009.4 |
| 20260505181550 | 4 | 284 | 6.4 | 17.7 | 0.00 | 0.00 | 0.00 | 54 | 1009.5 |
| 20260505181012 | 4 | 261 | 3.2 | 14.5 | 0.00 | 0.00 | 0.00 | 55 | 1009.4 |
| 20260505180514 | 4 | 271 | 4.8 | 17.7 | 0.00 | 0.00 | 0.00 | 56 | 1009.4 |
| 20260505180029 | 3 | 265 | 6.4 | 17.7 | 0.00 | 0.00 | 0.00 | 57 | 1009.5 |
| 20260505175509 | 3 | 260 | 6.4 | 17.7 | 0.00 | 0.00 | 0.00 | 57 | 1009.5 |
| 20260505175010 | 3 | 262 | 6.4 | 20.9 | 0.00 | 0.00 | 0.00 | 58 | 1009.5 |
| 20260505174529 | 3 | 255 | 11.3 | 20.9 | 0.00 | 0.00 | 0.00 | 56 | 1009.5 |
| 20260505174009 | 3 | 271 | 8.0 | 16.1 | 0.00 | 0.00 | 0.00 | 57 | 1009.5 |
| 20260505173513 | 3 | 264 | 4.8 | 14.5 | 0.00 | 0.00 | 0.00 | 59 | 1009.5 |
| 20260505173028 | 3 | 265 | 3.2 | 14.5 | 0.00 | 0.00 | 0.00 | 59 | 1009.4 |
| 20260505172516 | 3 | 264 | 6.4 | 17.7 | 0.00 | 0.00 | 0.00 | 58 | 1009.4 |
| 20260505172014 | 2 | 275 | 4.8 | 17.7 | 0.00 | 0.00 | 0.00 | 60 | 1009.4 |
| 20260505171530 | 2 | 275 | 8.0 | 17.7 | 0.00 | 0.00 | 0.00 | 60 | 1009.4 |
| 20260505171011 | 2 | 311 | 3.2 | 17.7 | 0.00 | 0.00 | 0.00 | 62 | 1009.5 |
| 20260505170514 | 2 | 274 | 6.4 | 17.7 | 0.00 | 0.00 | 0.00 | 62 | 1009.4 |
| 20260505170030 | 2 | 254 | 6.4 | 17.7 | 0.00 | 0.00 | 0.00 | 61 | 1009.5 |
| 20260505165509 | 2 | 277 | 6.4 | 17.7 | 0.00 | 0.00 | 0.00 | 63 | 1009.4 |
| 20260505165014 | 2 | 309 | 1.6 | 12.9 | 0.00 | 0.00 | 0.00 | 63 | 1009.2 |
| 20260505164545 | 2 | 265 | 4.8 | 14.5 | 0.00 | 0.00 | 0.00 | 62 | 1009.2 |
| 20260505164011 | 2 | 259 | 4.8 | 14.5 | 0.00 | 0.00 | 0.00 | 63 | 1009.3 |
| 20260505163510 | 2 | 266 | 6.4 | 14.5 | 0.00 | 0.00 | 0.00 | 63 | 1009.1 |
| 20260505163030 | 2 | 277 | 4.8 | 17.7 | 0.00 | 0.00 | 0.00 | 63 | 1009.2 |
| 20260505162510 | 2 | 227 | 4.8 | 17.7 | 0.00 | 0.00 | 0.00 | 63 | 1009.1 |
| 20260505162014 | 2 | 268 | 4.8 | 16.1 | 0.00 | 0.00 | 0.00 | 62 | 1009.1 |
| 20260505161527 | 2 | 272 | 4.8 | 16.1 | 0.00 | 0.00 | 0.00 | 63 | 1009.1 |
| 20260505161011 | 2 | 294 | 6.4 | 16.1 | 0.00 | 0.00 | 0.00 | 62 | 1009.1 |
| 20260505160511 | 2 | 268 | 6.4 | 16.1 | 0.00 | 0.00 | 0.00 | 63 | 1009.1 |
| 20260505153032 | 2 | 290 | 4.8 | 12.9 | 0.00 | 0.00 | 0.00 | 60 | 1008.5 |
| 20260505152512 | 2 | 0 | 3.2 | 16.1 | 0.00 | 0.00 | 0.00 | 61 | 1008.4 |
| 20260505152010 | 2 | 282 | 6.4 | 22.5 | 0.00 | 0.00 | 0.00 | 60 | 1008.4 |
| 20260505151531 | 2 | 288 | 8.0 | 22.5 | 0.00 | 0.00 | 0.00 | 60 | 1008.4 |
| 20260505151010 | 2 | 263 | 3.2 | 11.3 | 0.00 | 0.00 | 0.00 | 61 | 1008.2 |
| 20260505150513 | 2 | 273 | 3.2 | 22.5 | 0.00 | 0.00 | 0.00 | 62 | 1008.1 |
| 20260505140512 | 3 | 231 | 3.2 | 14.5 | 0.00 | 0.00 | 0.00 | 64 | 1007.5 |
| 20260505125012 | 1 | 331 | 3.2 | 16.1 | 0.00 | 0.00 | 0.00 | 71 | 1007.0 |
| 20260505124539 | 1 | 230 | 6.4 | 14.5 | 0.00 | 0.00 | 0.00 | 70 | 1006.9 |
| 20260505124010 | 1 | 328 | 3.2 | 16.1 | 0.00 | 0.00 | 0.00 | 71 | 1006.7 |
| 20260505123513 | 0 | 281 | 3.2 | 16.1 | 0.00 | 0.00 | 0.00 | 71 | 1006.7 |
| 20260505123031 | 0 | 285 | 4.8 | 16.1 | 0.00 | 0.00 | 0.00 | 72 | 1006.6 |
| 20260505122507 | 0 | 333 | 6.4 | 14.5 | 0.00 | 0.00 | 0.00 | 72 | 1006.6 |
| 20260505122015 | 0 | 265 | 8.0 | 14.5 | 0.00 | 0.00 | 0.00 | 73 | 1006.5 |
| 20260505121535 | 0 | 278 | 6.4 | 17.7 | 0.00 | 0.00 | 0.00 | 73 | 1006.4 |
| 20260505121011 | 0 | 285 | 4.8 | 17.7 | 0.00 | 0.00 | 0.00 | 74 | 1006.5 |
| 20260505120511 | 0 | 263 | 4.8 | 16.1 | 0.00 | 0.00 | 0.00 | 77 | 1006.4 |
| 20260505120037 | 0 | 327 | 3.2 | 14.5 | 0.00 | 0.00 | 0.00 | 78 | 1006.3 |
| 20260505115509 | 0 | 281 | 3.2 | 14.5 | 0.00 | 0.00 | 0.00 | 79 | 1006.2 |
| 20260505115012 | 0 | 296 | 4.8 | 14.5 | 0.00 | 0.00 | 0.00 | 79 | 1006.2 |
| 20260505114530 | 0 | 267 | 3.2 | 17.7 | 0.00 | 0.00 | 0.00 | 80 | 1006.0 |
| 20260505114011 | 0 | 281 | 4.8 | 17.7 | 0.00 | 0.00 | 0.00 | 80 | 1006.1 |
| 20260505113511 | 0 | 272 | 6.4 | 17.7 | 0.00 | 0.00 | 0.00 | 80 | 1006.0 |
| 20260505113032 | 0 | 266 | 6.4 | 16.1 | 0.00 | 0.00 | 0.00 | 79 | 1006.0 |
| 20260505112510 | 1 | 315 | 4.8 | 16.1 | 0.00 | 0.00 | 0.00 | 79 | 1006.1 |
| 20260505112010 | 1 | 278 | 3.2 | 12.9 | 0.00 | 0.00 | 0.00 | 77 | 1006.0 |
| 20260505111529 | 1 | 271 | 3.2 | 12.9 | 0.00 | 0.00 | 0.00 | 76 | 1005.9 |
| 20260505111015 | 1 | 274 | 4.8 | 12.9 | 0.00 | 0.00 | 0.00 | 76 | 1005.8 |
| 20260505110511 | 1 | 262 | 3.2 | 11.3 | 0.00 | 0.00 | 0.00 | 76 | 1005.7 |
| 20260505102012 | 1 | 263 | 3.2 | 11.3 | 0.00 | 0.00 | 0.00 | 76 | 1005.2 |
| 20260505101532 | 1 | 231 | 3.2 | 11.3 | 0.00 | 0.00 | 0.00 | 76 | 1005.1 |
| 20260505101013 | 1 | 271 | 1.6 | 11.3 | 0.00 | 0.00 | 0.00 | 75 | 1005.0 |
| 20260505100512 | 1 | 278 | 1.6 | 11.3 | 0.00 | 0.00 | 0.00 | 75 | 1005.0 |
| 20260505100030 | 1 | 294 | 3.2 | 14.5 | 0.00 | 0.00 | 0.00 | 74 | 1004.8 |
| 20260505095510 | 1 | 294 | 4.8 | 16.1 | 0.00 | 0.00 | 0.00 | 73 | 1004.8 |
| 20260505095013 | 1 | 272 | 1.6 | 16.1 | 0.00 | 0.00 | 0.00 | 73 | 1004.8 |
| 20260505094531 | 1 | 286 | 3.2 | 16.1 | 0.00 | 0.00 | 0.00 | 72 | 1004.7 |
| 20260505094010 | 1 | 245 | 1.6 | 6.4 | 0.00 | 0.00 | 0.00 | 72 | 1004.7 |
| 20260505093511 | 1 | 0 | 1.6 | 8.0 | 0.00 | 0.00 | 0.00 | 71 | 1004.7 |
| 20260505093031 | 1 | 269 | 3.2 | 8.0 | 0.00 | 0.00 | 0.00 | 71 | 1004.6 |
| 20260505092514 | 1 | 255 | 3.2 | 6.4 | 0.00 | 0.00 | 0.00 | 70 | 1004.5 |
| 20260505092013 | 2 | 255 | 1.6 | 4.8 | 0.00 | 0.00 | 0.00 | 70 | 1004.4 |
| 20260505091530 | 2 | 255 | 1.6 | 4.8 | 0.00 | 0.00 | 0.00 | 71 | 1004.4 |
| 20260505091011 | 2 | 255 | 1.6 | 4.8 | 0.00 | 0.00 | 0.00 | 71 | 1004.3 |
| 20260505090509 | 2 | 255 | 0.0 | 3.2 | 0.00 | 0.00 | 0.00 | 71 | 1004.3 |
| 20260505090033 | 2 | 255 | 1.6 | 3.2 | 0.00 | 0.00 | 0.00 | 72 | 1004.2 |
| 20260505085513 | 2 | 255 | 1.6 | 3.2 | 0.00 | 0.00 | 0.00 | 71 | 1004.3 |
| 20260505085012 | 2 | 0 | 0.0 | 3.2 | 0.00 | 0.00 | 0.00 | 71 | 1004.1 |
| 20260505084543 | 2 | 0 | 0.0 | 3.2 | 0.00 | 0.00 | 0.00 | 71 | 1004.1 |
| 20260505084011 | 2 | 0 | 0.0 | 3.2 | 0.00 | 0.00 | 0.00 | 71 | 1004.0 |
| 20260505083511 | 2 | 0 | 0.0 | 3.2 | 0.00 | 0.00 | 0.00 | 71 | 1004.1 |
| 20260505083033 | 2 | 0 | 0.0 | 3.2 | 0.00 | 0.00 | 0.00 | 70 | 1004.1 |
| 20260505082510 | 2 | 0 | 0.0 | 3.2 | 0.00 | 0.00 | 0.00 | 70 | 1004.0 |
| 20260505082010 | 2 | 255 | 0.0 | 1.6 | 0.00 | 0.00 | 0.00 | 69 | 1004.1 |
| 20260505081533 | 2 | 0 | 0.0 | 3.2 | 0.00 | 0.00 | 0.00 | 69 | 1004.0 |
| 20260505081011 | 2 | 0 | 0.0 | 3.2 | 0.00 | 0.00 | 0.00 | 69 | 1004.0 |
| 20260505080513 | 2 | 255 | 0.0 | 9.7 | 0.00 | 0.00 | 0.00 | 69 | 1003.9 |
| 20260505080029 | 2 | 0 | 1.6 | 9.7 | 0.00 | 0.00 | 0.00 | 67 | 1003.9 |
| 20260505075509 | 2 | 255 | 1.6 | 9.7 | 0.00 | 0.00 | 0.00 | 65 | 1003.9 |
| 20260505075013 | 2 | 315 | 1.6 | 6.4 | 0.00 | 0.00 | 0.00 | 65 | 1003.9 |
| 20260505074531 | 2 | 276 | 1.6 | 6.4 | 0.00 | 0.00 | 0.00 | 65 | 1003.9 |
| 20260505074009 | 2 | 323 | 0.0 | 6.4 | 0.00 | 0.00 | 0.00 | 65 | 1003.9 |
| 20260505073512 | 2 | 267 | 1.6 | 11.3 | 0.00 | 0.00 | 0.00 | 64 | 1003.9 |
| 20260505073033 | 2 | 0 | 1.6 | 11.3 | 0.00 | 0.00 | 0.00 | 63 | 1003.9 |
| 20260505072512 | 3 | 281 | 3.2 | 9.7 | 0.00 | 0.00 | 0.00 | 63 | 1003.9 |
| 20260505072015 | 3 | 306 | 1.6 | 9.7 | 0.00 | 0.00 | 0.00 | 63 | 1004.0 |
| 20260505071533 | 3 | 290 | 1.6 | 9.7 | 0.00 | 0.00 | 0.00 | 62 | 1004.0 |
| 20260505071011 | 3 | 296 | 1.6 | 11.3 | 0.00 | 0.00 | 0.00 | 62 | 1004.0 |
| 20260505070514 | 3 | 0 | 1.6 | 11.3 | 0.00 | 0.00 | 0.00 | 62 | 1004.0 |
| 20260505070040 | 3 | 258 | 1.6 | 9.7 | 0.00 | 0.00 | 0.00 | 62 | 1004.0 |
| 20260505065516 | 3 | 294 | 3.2 | 9.7 | 0.00 | 0.00 | 0.00 | 62 | 1004.1 |
| 20260505065012 | 3 | 262 | 3.2 | 11.3 | 0.00 | 0.00 | 0.00 | 61 | 1004.1 |
| 20260505064531 | 3 | 273 | 4.8 | 11.3 | 0.00 | 0.00 | 0.00 | 61 | 1004.1 |
| 20260505064017 | 3 | 261 | 4.8 | 11.3 | 0.00 | 0.00 | 0.00 | 61 | 1004.1 |
| 20260505063512 | 3 | 254 | 3.2 | 16.1 | 0.00 | 0.00 | 0.00 | 60 | 1004.0 |
| 20260505063034 | 3 | 260 | 4.8 | 16.1 | 0.00 | 0.00 | 0.00 | 60 | 1004.1 |
| 20260505062512 | 3 | 280 | 3.2 | 16.1 | 0.00 | 0.00 | 0.00 | 61 | 1004.2 |
| 20260505062015 | 3 | 258 | 1.6 | 12.9 | 0.00 | 0.00 | 0.00 | 60 | 1004.1 |
| 20260505061531 | 3 | 241 | 4.8 | 12.9 | 0.00 | 0.00 | 0.00 | 59 | 1004.2 |
| 20260505061012 | 3 | 264 | 3.2 | 14.5 | 0.00 | 0.00 | 0.00 | 58 | 1004.1 |
| 20260505060512 | 3 | 277 | 6.4 | 14.5 | 0.00 | 0.00 | 0.00 | 58 | 1004.1 |
| 20260505060036 | 3 | 261 | 6.4 | 14.5 | 0.00 | 0.00 | 0.00 | 58 | 1004.0 |
| 20260505055513 | 4 | 295 | 3.2 | 14.5 | 0.00 | 0.00 | 0.00 | 59 | 1004.1 |
| 20260505055016 | 4 | 259 | 4.8 | 12.9 | 0.00 | 0.00 | 0.00 | 59 | 1004.0 |
| 20260505054532 | 4 | 266 | 3.2 | 14.5 | 0.00 | 0.00 | 0.00 | 60 | 1004.0 |
| 20260505054019 | 4 | 261 | 6.4 | 14.5 | 0.00 | 0.00 | 0.00 | 59 | 1004.0 |
| 20260505053515 | 4 | 273 | 4.8 | 12.9 | 0.00 | 0.00 | 0.00 | 59 | 1003.9 |
| 20260505053054 | 4 | 281 | 4.8 | 12.9 | 0.00 | 0.00 | 0.00 | 59 | 1003.8 |
| 20260505052511 | 4 | 271 | 3.2 | 9.7 | 0.00 | 0.00 | 0.00 | 59 | 1003.8 |
| 20260505052016 | 4 | 260 | 4.8 | 9.7 | 0.00 | 0.00 | 0.00 | 60 | 1003.7 |
| 20260505051530 | 4 | 265 | 1.6 | 11.3 | 0.00 | 0.00 | 0.00 | 59 | 1003.7 |
| 20260505051011 | 5 | 258 | 1.6 | 11.3 | 0.00 | 0.00 | 0.00 | 59 | 1003.6 |
| 20260505050512 | 4 | 286 | 4.8 | 11.3 | 0.00 | 0.00 | 0.00 | 59 | 1003.7 |
| 20260505041539 | 4 | 265 | 1.6 | 6.4 | 0.00 | 0.00 | 0.00 | 59 | 1003.6 |
| 20260505041010 | 4 | 265 | 1.6 | 9.7 | 0.00 | 0.00 | 0.00 | 59 | 1003.6 |
| 20260505040510 | 4 | 265 | 1.6 | 9.7 | 0.00 | 0.00 | 0.00 | 59 | 1003.7 |
| 20260505040032 | 4 | 265 | 1.6 | 11.3 | 0.00 | 0.00 | 0.00 | 59 | 1003.7 |
| 20260505035510 | 4 | 265 | 3.2 | 11.3 | 0.00 | 0.00 | 0.00 | 58 | 1003.6 |
| 20260505035010 | 4 | 272 | 4.8 | 11.3 | 0.00 | 0.00 | 0.00 | 57 | 1003.6 |
| 20260505034533 | 4 | 262 | 3.2 | 11.3 | 0.00 | 0.00 | 0.00 | 58 | 1003.6 |
| 20260505034012 | 4 | 258 | 3.2 | 11.3 | 0.00 | 0.00 | 0.00 | 57 | 1003.6 |
| 20260505033521 | 4 | 273 | 3.2 | 9.7 | 0.00 | 0.00 | 0.00 | 57 | 1003.7 |
| 20260505033030 | 4 | 259 | 4.8 | 11.3 | 0.00 | 0.00 | 0.00 | 57 | 1003.6 |
| 20260505032510 | 4 | 264 | 4.8 | 11.3 | 0.00 | 0.00 | 0.00 | 57 | 1003.6 |
| 20260505032011 | 4 | 265 | 4.8 | 9.7 | 0.00 | 0.00 | 0.00 | 58 | 1003.6 |
| 20260505031529 | 5 | 264 | 3.2 | 9.7 | 0.00 | 0.00 | 0.00 | 57 | 1003.5 |
| 20260505031015 | 5 | 264 | 3.2 | 9.7 | 0.00 | 0.00 | 0.00 | 57 | 1003.6 |
| 20260505030511 | 5 | 252 | 3.2 | 12.9 | 0.00 | 0.00 | 0.00 | 56 | 1003.5 |
| 20260505030032 | 5 | 286 | 3.2 | 12.9 | 0.00 | 0.00 | 0.00 | 56 | 1003.5 |
| 20260505025510 | 5 | 276 | 4.8 | 12.9 | 0.00 | 0.00 | 0.00 | 56 | 1003.5 |
| 20260505025011 | 5 | 275 | 3.2 | 12.9 | 0.00 | 0.00 | 0.00 | 56 | 1003.5 |
| 20260505024529 | 5 | 269 | 4.8 | 17.7 | 0.00 | 0.00 | 0.00 | 54 | 1003.5 |
| 20260505024008 | 5 | 284 | 4.8 | 17.7 | 0.00 | 0.00 | 0.00 | 55 | 1003.5 |
| 20260505023510 | 5 | 253 | 6.4 | 14.5 | 0.00 | 0.00 | 0.00 | 53 | 1003.4 |
| 20260505023031 | 5 | 273 | 4.8 | 11.3 | 0.00 | 0.00 | 0.00 | 55 | 1003.4 |
| 20260505022510 | 5 | 265 | 3.2 | 12.9 | 0.00 | 0.00 | 0.00 | 55 | 1003.3 |
| 20260505022013 | 5 | 278 | 3.2 | 17.7 | 0.00 | 0.00 | 0.00 | 55 | 1003.3 |
| 20260505021532 | 5 | 274 | 3.2 | 17.7 | 0.00 | 0.00 | 0.00 | 54 | 1003.1 |
| 20260505021007 | 5 | 245 | 6.4 | 17.7 | 0.00 | 0.00 | 0.00 | 55 | 1003.0 |
| 20260505020512 | 5 | 267 | 6.4 | 16.1 | 0.00 | 0.00 | 0.00 | 54 | 1002.9 |
| 20260505020030 | 5 | 269 | 4.8 | 14.5 | 0.00 | 0.00 | 0.00 | 54 | 1002.9 |
| 20260505015511 | 5 | 286 | 6.4 | 14.5 | 0.00 | 0.00 | 0.00 | 54 | 1002.9 |
| 20260505015014 | 5 | 278 | 6.4 | 16.1 | 0.00 | 0.00 | 0.00 | 54 | 1002.8 |
| 20260505014530 | 5 | 261 | 4.8 | 16.1 | 0.00 | 0.00 | 0.00 | 54 | 1002.8 |
| 20260505014011 | 5 | 259 | 6.4 | 16.1 | 0.00 | 0.00 | 0.00 | 54 | 1002.8 |
| 20260505013510 | 5 | 267 | 6.4 | 16.1 | 0.00 | 0.00 | 0.00 | 54 | 1002.7 |
| 20260505013030 | 5 | 300 | 3.2 | 17.7 | 0.00 | 0.00 | 0.00 | 54 | 1002.5 |
| 20260505012511 | 6 | 273 | 8.0 | 17.7 | 0.00 | 0.00 | 0.00 | 54 | 1002.6 |
| 20260505012010 | 6 | 292 | 8.0 | 17.7 | 0.00 | 0.00 | 0.00 | 53 | 1002.6 |
| 20260505011553 | 6 | 269 | 6.4 | 19.3 | 0.00 | 0.00 | 0.00 | 54 | 1002.5 |
| 20260505011010 | 6 | 302 | 8.0 | 19.3 | 0.00 | 0.00 | 0.00 | 55 | 1002.4 |
| 20260505010517 | 6 | 298 | 8.0 | 22.5 | 0.00 | 0.00 | 0.00 | 54 | 1002.4 |
| 20260505010029 | 6 | 285 | 8.0 | 22.5 | 0.00 | 0.00 | 0.00 | 54 | 1002.3 |
| 20260505005511 | 6 | 228 | 9.7 | 22.5 | 0.00 | 0.00 | 0.00 | 54 | 1002.3 |
| 20260505005010 | 6 | 250 | 8.0 | 19.3 | 0.00 | 0.00 | 0.00 | 55 | 1002.2 |
| 20260505004530 | 6 | 240 | 6.4 | 19.3 | 0.00 | 0.00 | 0.00 | 55 | 1002.2 |
| 20260505004009 | 6 | 280 | 8.0 | 16.1 | 0.00 | 0.00 | 0.00 | 54 | 1002.1 |
| 20260505003512 | 6 | 262 | 6.4 | 17.7 | 0.00 | 0.00 | 0.00 | 55 | 1002.1 |
| 20260505003030 | 6 | 265 | 6.4 | 17.7 | 0.00 | 0.00 | 0.00 | 55 | 1002.0 |
| 20260505002511 | 6 | 274 | 11.3 | 22.5 | 0.00 | 0.00 | 0.00 | 53 | 1001.9 |
| 20260505002016 | 7 | 276 | 11.3 | 22.5 | 0.00 | 0.00 | 0.00 | 51 | 1001.8 |
| 20260505001532 | 7 | 258 | 11.3 | 22.5 | 0.00 | 0.00 | 0.00 | 50 | 1001.7 |
| 20260505001015 | 7 | 298 | 8.0 | 17.7 | 0.00 | 0.00 | 0.00 | 50 | 1001.7 |
| 20260505000514 | 7 | 252 | 8.0 | 17.7 | 0.00 | 0.00 | 0.00 | 52 | 1001.6 |
| 20260505000038 | 8 | 297 | 4.8 | 17.7 | 0.00 | 0.00 | 0.00 | 54 | 1001.3 |
| 20260504235510 | 8 | 300 | 4.8 | 25.7 | 0.00 | 0.00 | 0.00 | 54 | 1001.4 |
| 20260504235011 | 8 | 249 | 6.4 | 25.7 | 0.00 | 0.00 | 0.00 | 54 | 1001.3 |
| 20260504234530 | 8 | 281 | 8.0 | 25.7 | 0.00 | 0.00 | 0.00 | 54 | 1001.2 |
| 20260504234010 | 8 | 255 | 8.0 | 25.7 | 0.00 | 0.00 | 0.00 | 55 | 1001.1 |
| 20260504233508 | 8 | 268 | 9.7 | 25.7 | 0.00 | 0.00 | 0.00 | 55 | 1001.1 |
| 20260504233031 | 8 | 277 | 8.0 | 20.9 | 0.00 | 0.00 | 0.00 | 56 | 1000.9 |
| 20260504232511 | 8 | 282 | 8.0 | 19.3 | 0.00 | 0.00 | 0.00 | 53 | 1000.9 |
| 20260504232015 | 9 | 248 | 4.8 | 17.7 | 0.00 | 0.00 | 0.00 | 53 | 1000.8 |
| 20260504231528 | 9 | 296 | 3.2 | 16.1 | 0.00 | 0.00 | 0.00 | 54 | 1000.6 |
| 20260504231009 | 9 | 290 | 4.8 | 19.3 | 0.00 | 0.00 | 0.00 | 51 | 1000.6 |
| 20260504230510 | 9 | 298 | 4.8 | 20.9 | 0.00 | 0.00 | 0.00 | 50 | 1000.4 |
| 20260504230033 | 10 | 286 | 9.7 | 20.9 | 0.00 | 0.00 | 0.00 | 50 | 1000.4 |
| 20260504225511 | 10 | 298 | 4.8 | 20.9 | 0.00 | 0.00 | 0.00 | 50 | 1000.5 |
| 20260504225013 | 10 | 278 | 8.0 | 20.9 | 0.00 | 0.00 | 0.00 | 48 | 1000.3 |
| 20260504224533 | 10 | 291 | 3.2 | 22.5 | 0.00 | 0.00 | 0.00 | 50 | 1000.3 |
| 20260504224010 | 10 | 271 | 4.8 | 24.1 | 0.00 | 0.00 | 0.00 | 49 | 1000.2 |
| 20260504223511 | 10 | 285 | 6.4 | 29.0 | 0.00 | 0.00 | 0.00 | 47 | 1000.2 |
| 20260504223030 | 10 | 246 | 6.4 | 29.0 | 0.00 | 0.00 | 0.00 | 47 | 1000.2 |
| 20260504222509 | 10 | 274 | 11.3 | 29.0 | 0.00 | 0.00 | 0.00 | 47 | 1000.1 |
| 20260504222012 | 10 | 269 | 9.7 | 24.1 | 0.00 | 0.00 | 0.00 | 46 | 1000.0 |
| 20260504221529 | 10 | 243 | 11.3 | 22.5 | 0.00 | 0.00 | 0.00 | 43 | 1000.0 |
| 20260504221017 | 11 | 290 | 6.4 | 19.3 | 0.00 | 0.00 | 0.00 | 45 | 999.8 |
| 20260504220514 | 11 | 248 | 4.8 | 19.3 | 0.00 | 0.00 | 0.00 | 47 | 999.7 |
| 20260504220034 | 11 | 302 | 9.7 | 20.9 | 0.00 | 0.00 | 0.00 | 46 | 999.6 |
| 20260504215510 | 10 | 285 | 6.4 | 24.1 | 0.00 | 0.00 | 0.00 | 48 | 999.6 |
| 20260504215014 | 11 | 301 | 8.0 | 25.7 | 0.00 | 0.00 | 0.00 | 46 | 999.6 |
| 20260504214529 | 11 | 277 | 8.0 | 25.7 | 0.00 | 0.00 | 0.00 | 46 | 999.5 |
| 20260504214007 | 11 | 279 | 9.7 | 25.7 | 0.00 | 0.00 | 0.00 | 44 | 999.6 |
| 20260504213514 | 11 | 242 | 11.3 | 24.1 | 0.00 | 0.00 | 0.00 | 46 | 999.5 |
| 20260504213034 | 11 | 290 | 8.0 | 30.6 | 0.00 | 0.00 | 0.00 | 43 | 999.2 |
| 20260504212515 | 12 | 270 | 11.3 | 30.6 | 0.00 | 0.00 | 0.00 | 43 | 999.2 |
| 20260504212010 | 12 | 259 | 9.7 | 20.9 | 0.00 | 0.00 | 0.00 | 46 | 999.1 |
| 20260504211528 | 11 | 286 | 8.0 | 20.9 | 0.00 | 0.00 | 0.00 | 46 | 998.9 |
| 20260504211009 | 11 | 352 | 6.4 | 20.9 | 0.00 | 0.00 | 0.00 | 47 | 999.0 |
| 20260504210511 | 11 | 294 | 8.0 | 20.9 | 0.00 | 0.00 | 0.00 | 46 | 998.9 |
| 20260504210028 | 12 | 198 | 6.4 | 20.9 | 0.00 | 0.00 | 0.00 | 47 | 998.7 |
| 20260504205511 | 12 | 259 | 8.0 | 24.1 | 0.00 | 0.00 | 0.00 | 46 | 998.6 |
| 20260504205014 | 12 | 256 | 9.7 | 24.1 | 0.00 | 0.00 | 0.00 | 46 | 998.7 |
| 20260504204527 | 12 | 289 | 8.0 | 22.5 | 0.00 | 0.00 | 0.00 | 47 | 998.6 |
| 20260504204012 | 11 | 310 | 8.0 | 24.1 | 0.00 | 0.00 | 0.00 | 46 | 998.5 |
| 20260504203514 | 11 | 275 | 8.0 | 24.1 | 0.00 | 0.00 | 0.00 | 46 | 998.5 |
| 20260504203031 | 12 | 286 | 12.9 | 27.4 | 0.00 | 0.00 | 0.00 | 45 | 998.3 |
| 20260504202509 | 12 | 291 | 11.3 | 27.4 | 0.00 | 0.00 | 0.00 | 45 | 998.4 |
| 20260504202013 | 12 | 230 | 12.9 | 27.4 | 0.00 | 0.00 | 0.00 | 44 | 998.4 |
| 20260504201528 | 12 | 259 | 11.3 | 25.7 | 0.00 | 0.00 | 0.00 | 44 | 998.2 |
| 20260504201013 | 12 | 287 | 6.4 | 22.5 | 0.00 | 0.00 | 0.00 | 46 | 998.1 |
| 20260504200511 | 12 | 275 | 8.0 | 22.5 | 0.00 | 0.00 | 0.00 | 46 | 998.0 |
| 20260504200030 | 13 | 261 | 6.4 | 25.7 | 0.00 | 0.00 | 0.00 | 44 | 998.0 |
| 20260504195510 | 13 | 307 | 8.0 | 25.7 | 0.00 | 0.00 | 0.00 | 45 | 997.8 |
| 20260504195012 | 13 | 272 | 9.7 | 25.7 | 0.00 | 0.00 | 0.00 | 44 | 997.7 |
| 20260504194533 | 13 | 269 | 11.3 | 27.4 | 0.00 | 0.00 | 0.00 | 45 | 997.7 |
| 20260504194009 | 13 | 270 | 9.7 | 27.4 | 0.00 | 0.00 | 0.00 | 48 | 997.4 |
| 20260504193511 | 13 | 270 | 11.3 | 27.4 | 0.00 | 0.00 | 0.00 | 47 | 997.6 |